OBJECT A, 69474

Orbit data source: Space-Track

You're viewing an Uncataloged Satellite

Recently launched and/or uncataloged satellites may have evolving metadata. Metadata may include but not limited to: Owner, Maufacturer, Bus, Motor, and Mission.

OBJECT A, 69474 is a Chinese satellite in HEO that was launched on Thu, 11 Jun 2026 UTC via a CHANG ZHENG 5 launch vehicle from the Wenchang Satellite Launch Center (WSC). Unknown objects in Earth's orbit typically refer to objects detected orbiting the Earth but have not yet been identified or cataloged. These objects could be anything from previously untracked satellites, spent rocket stages, debris from satellite collisions, or even natural meteoroids temporarily captured by Earth's gravity.

Loading next visibility...
Identifier
69474, 2026-129A
Orbit
HEO
Country
Flag of CNCN / PRC
Related business
Manufacturer
CAST
Mission
Operational spacecraft
Bus & Motor
TJS11, Unknown motor
Mass
~10,000 kg wet, ~6,000 kg dry
Launch date (UTC)
2026-06-11 (2 days ago)
Launch vehicle
CHANG ZHENG 5
Launch site
Wenchang Satellite Launch Center (WSC)
Object type
Unknown
Shape & HBR
Unknown
Radar Cross Section
RCS unknown

Expand to show TLE details & history
Last TLE update: 2 days ago

TLE from 2 days ago
0 OBJECT A
1 69474U 26129A   26162.48255804  .00007407  00000-0  19774-2 0  9991
2 69474  16.5302  30.5351 7751889 199.9639  91.9387  1.72502163    78
Epoch: 2026-06-11T11:34Z
TLE epoch observation values (Epoch: 2026-06-11T11:34:53.014Z)
Latitude
-0°
Longitude
-42.98771°
Altitude
36,754.644 km
Speed
2.216 km/s
True Right ascension
02h 02m 14s
True Declination
0° 00' 00"
Sunlit
Object was in daylight at epoch
Visualization orbit readout
Latitude
Unknown
Longitude
Unknown
Altitude
Unknown
Speed
Unknown
Apparent Right ascension
Unknown
Apparent Declination
Unknown
Sunlit
N/A
Visualization observer readout
Local Sidereal Time
04:59:25
Azimuth
Unknown
Elevation
Unknown
Doppler factor
Unknown
Orbital elements
Apogee altitude
45,764.654 km
Perigee altitude
225.261 km
Semi-major axis
29,373.094 km
Eccentricity
0.77519
Inclination
16.5302°
RAAN
30.5351°
Arg. of periapsis
199.9639°
True anomaly
159.99785°
Mean anomaly
91.9387°
Eccentric anomaly
127.27938°
Mean motion
0.43114 °/min
Orbital period
835 mins
BSTAR
0.0019774
Loading maneuver chart data...
Computing Atmospheric mass density...
Loading historical data...
Loading historical data...
Loading historical data...
Loading historical data...
Loading historical data...
Loading historical data...
Loading historical data...
Other satellites on launch #129 in the year 2026 (2026-06-11 UTC)

Documentation

Showing up to 5 results
|